Weather History for KBRD - November, 2012

Change the Weather History Date:

Friday, November 2, 2012

  Actual Average Record
Temperature  
Mean Temperature 31 °F -  
Max Temperature 39 °F 45 °F 65 °F (1981)
Min Temperature 25 °F 26 °F 5 °F (1966)
Degree Days  
Heating Degree Days 34    
Moisture  
Dew Point 22 °F    
Average Humidity 65    
Maximum Humidity 85    
Minimum Humidity 47    
Precipitation  
Precipitation 0.00 in - - ()
Sea Level Pressure  
Sea Level Pressure 30.18 in    
Wind  
Wind Speed 5 mph (NE)    
Max Wind Speed 12 mph    
Max Gust Speed -    
Visibility 10 miles    
Events      
Averages and records for this station are not official NWS values.
T = Trace of Precipitation, MM = Missing Value Source: NWS Daily Summary

Daily Weather History Graph

Daily Weather History Graph

Search for Another Location

Airport or City:

Trip Planner

Search our weather history database for the weather conditions in past years. The results will help you decide how hot, cold, wet, or windy it might be!

Date:

Astronomy

Nov. 02, 2012 Rise Set
Actual Time 8:00 AM CDT 5:59 PM CDT
Civil Twilight 7:28 AM CDT 6:30 PM CDT
Nautical Twilight 6:52 AM CDT 7:06 PM CDT
Astronomical Twilight 6:17 AM CDT 7:41 PM CDT
Moon 8:40 PM CDT (11/2) 11:28 AM CDT (11/2)
Length of Visible Light 11h 02m
Length of Day
9h 59m
Waning Gibbous, 87% of the Moon is Illuminated
Nov 2
Waning Gibbous
Nov 6
Last Quarter
Nov 13
New
Nov 20
First Quarter
Nov 28
Full

Hourly Weather History & Observations

Time (CDT) Temp. Windchill Dew Point Humidity Pressure Visibility Wind Dir Wind Speed Gust Speed Precip Events Conditions
12:53 AM 30.0 °F 20.5 °F 21.9 °F 72% 30.12 in 10.0 mi NE 11.5 mph - N/A   Overcast
1:53 AM 30.9 °F 24.3 °F 23.0 °F 72% 30.14 in 10.0 mi NE 6.9 mph - N/A   Overcast
2:53 AM 30.9 °F 27.5 °F 23.0 °F 72% 30.14 in 10.0 mi NE 3.5 mph - N/A   Overcast
3:53 AM 30.0 °F 25.2 °F 21.9 °F 72% 30.15 in 10.0 mi ENE 4.6 mph - N/A   Overcast
4:53 AM 30.0 °F 24.1 °F 21.9 °F 72% 30.15 in 10.0 mi NE 5.8 mph - N/A   Overcast
5:33 AM 26.6 °F 22.6 °F 21.2 °F 80% 30.11 in 10.0 mi NNE 3.5 mph - N/A   Scattered Clouds
5:53 AM 26.1 °F 21.9 °F 19.9 °F 78% 30.16 in 10.0 mi NE 3.5 mph - N/A   Clear
6:53 AM 25.0 °F 19.3 °F 21.0 °F 85% 30.17 in 10.0 mi NNE 4.6 mph - N/A   Clear
7:53 AM 25.0 °F 17.1 °F 19.9 °F 81% 30.17 in 10.0 mi NE 6.9 mph - N/A   Clear
8:53 AM 28.0 °F 21.7 °F 21.9 °F 78% 30.19 in 10.0 mi NE 5.8 mph - N/A   Clear
9:53 AM 30.0 °F 23.2 °F 21.9 °F 72% 30.20 in 10.0 mi ENE 6.9 mph - N/A   Clear
10:53 AM 32.0 °F 27.5 °F 21.0 °F 64% 30.22 in 10.0 mi East 4.6 mph - N/A   Clear
11:53 AM 33.1 °F 30.0 °F 21.0 °F 61% 30.21 in 10.0 mi NE 3.5 mph - N/A   Clear
12:53 PM 35.1 °F - 21.0 °F 57% 30.19 in 10.0 mi Calm Calm - N/A   Clear
1:53 PM 37.9 °F - 19.9 °F 48% 30.19 in 10.0 mi Calm Calm - N/A   Clear
2:53 PM 37.9 °F - 19.0 °F 47% 30.17 in 10.0 mi Calm Calm - N/A   Clear
3:53 PM 37.9 °F - 19.0 °F 47% 30.18 in 10.0 mi Calm Calm - N/A   Mostly Cloudy
4:53 PM 37.9 °F 35.5 °F 21.9 °F 53% 30.17 in 10.0 mi NNW 3.5 mph - N/A   Overcast
5:53 PM 37.9 °F - 23.0 °F 55% 30.18 in 10.0 mi Calm Calm - N/A   Overcast
6:53 PM 37.0 °F - 23.0 °F 57% 30.19 in 10.0 mi Calm Calm - N/A   Overcast
7:53 PM 36.0 °F - 25.0 °F 64% 30.19 in 10.0 mi Calm Calm - N/A   Overcast
8:53 PM 36.0 °F - 24.1 °F 62% 30.20 in 10.0 mi Calm Calm - N/A   Overcast
9:53 PM 36.0 °F - 21.9 °F 57% 30.20 in 10.0 mi Calm Calm - N/A   Overcast
10:53 PM 36.0 °F 33.3 °F 21.9 °F 57% 30.22 in 10.0 mi NE 3.5 mph - N/A   Overcast
11:53 PM 35.1 °F 29.3 °F 23.0 °F 61% 30.21 in 10.0 mi ENE 6.9 mph - N/A   Overcast